Location: Newark
(25.0000°N, 73.5000°E)
Time: 19:05:24
(UTC+00:00)

X-37B - Pass Details

Date: 21 June 2021
Orbit: 383 x 392 km, 45.0° (Epoch: 01 July)

Event Time Altitude Azimuth Distance (km) Brightness Sun altitude
Rises 22:41:04 0° 325° (NW) 2,255 4.5 -19.2°
Reaches altitude 10° 22:43:30 10° 344° (NNW) 1,402 3.7 -18.8°
Maximum altitude 22:45:55 20° 34° (NE) 957 3.4 -18.4°
Drops below altitude 10° 22:48:20 10° 84° (E) 1,402 4.3 -17.9°
Sets 22:50:45 0° 102° (ESE) 2,256 5.1 -17.5°
